EW8576 Weather Reports


Display with metric or nautical units.
time (UTC)temp
F
wind
direction
speed
MPH
gust
MPH
rain 1hr
in
rain 24hr
in
rain mn
in
humidity
%
barometer
mb
20260503231743 57 254 0.0 2.0 0.00 0.00 0.00 36 1007.9
20260503231241 57 337 0.0 2.0 0.00 0.00 0.00 36 1007.8
20260503230739 57 296 0.0 2.0 0.00 0.00 0.00 35 1007.8
20260503230239 57 288 0.0 1.0 0.00 0.00 0.00 35 1007.8
20260503230000 57 300 0.0 4.0 0.00 0.00 0.00 34 1007.7
20260503225239 57 276 0.0 5.0 0.00 0.00 0.00 35 1007.7
20260503224738 58 87 0.0 7.0 0.00 0.00 0.00 34 1007.6
20260503224459 58 330 0.0 7.0 0.00 0.00 0.00 33 1007.3
20260503223738 58 317 0.0 4.0 0.00 0.00 0.00 32 1007.6
20260503223234 58 282 1.0 9.0 0.00 0.00 0.00 32 1007.4
20260503222959 58 312 1.0 13.0 0.00 0.00 0.00 32 1007.3
20260503222234 58 275 0.0 13.0 0.00 0.00 0.00 31 1007.3
20260503221735 58 315 0.0 7.0 0.00 0.00 0.00 30 1007.2
20260503221235 59 296 0.0 5.0 0.00 0.00 0.00 29 1007.2
20260503220735 59 290 0.0 7.0 0.00 0.00 0.00 31 1007.1
20260503220235 58 307 0.0 7.0 0.00 0.00 0.00 31 1007.0
20260503215735 58 338 0.0 7.0 0.00 0.00 0.00 29 1007.0
20260503215458 58 317 0.0 7.0 0.00 0.00 0.00 28 1007.0
20260503214730 59 0 1.0 10.0 0.00 0.00 0.00 28 1007.1
20260503214231 60 308 1.0 10.0 0.00 0.00 0.00 27 1007.2
20260503213731 60 68 1.0 10.0 0.00 0.00 0.00 29 1007.1
20260503213231 60 325 1.0 10.0 0.00 0.00 0.00 27 1007.0
20260503212731 60 286 0.0 9.0 0.00 0.00 0.00 27 1006.9
20260503212230 60 5 0.0 4.0 0.00 0.00 0.00 28 1006.9
20260503211730 60 282 0.0 6.0 0.00 0.00 0.00 28 1006.9
20260503211231 60 10 0.0 6.0 0.00 0.00 0.00 29 1006.9
20260503210731 60 321 0.0 4.0 0.00 0.00 0.00 27 1006.9
20260503210227 60 305 0.0 6.0 0.00 0.00 0.00 28 1006.9
20260503205728 60 252 0.0 6.0 0.00 0.00 0.00 28 1006.8
20260503205223 60 224 0.0 5.0 0.00 0.00 0.00 31 1006.9
20260503204723 59 246 0.0 10.0 0.00 0.00 0.00 31 1006.9
20260503204222 59 17 0.0 10.0 0.00 0.00 0.00 31 1006.9
20260503203722 60 355 0.0 11.0 0.00 0.00 0.00 32 1007.0
20260503203218 59 47 0.0 11.0 0.00 0.00 0.00 32 1007.0
20260503202938 59 301 0.0 7.0 0.00 0.00 0.00 31 1007.1
20260503202216 59 298 1.0 13.0 0.00 0.00 0.00 32 1007.1
20260503201716 59 271 2.0 13.0 0.00 0.00 0.00 32 1007.2
20260503201436 59 273 1.0 12.0 0.00 0.00 0.00 32 1007.3
20260503200714 58 246 0.0 9.0 0.00 0.00 0.00 31 1007.2
20260503200440 58 198 1.0 10.0 0.00 0.00 0.00 34 1007.2
20260503195710 58 319 1.0 10.0 0.00 0.00 0.00 35 1007.3
20260503195208 57 69 1.0 10.0 0.00 0.00 0.00 33 1007.3
20260503194707 57 65 0.0 8.0 0.00 0.00 0.00 34 1007.4
20260503194422 56 61 0.0 8.0 0.00 0.00 0.00 38 1007.7
20260503193656 56 63 0.0 13.0 0.00 0.00 0.00 35 1007.8
20260503193407 55 16 1.0 14.0 0.00 0.00 0.00 37 1007.9
20260503192644 55 80 1.0 14.0 0.00 0.00 0.00 34 1007.9
20260503192359 56 5 1.0 14.0 0.00 0.00 0.00 34 1008.0
20260503191852 57 244 1.0 10.0 0.00 0.00 0.00 32 1008.0
20260503191126 58 263 1.0 15.0 0.00 0.00 0.00 34 1008.0
20260503190620 57 348 1.0 15.0 0.00 0.00 0.00 38 1007.9
20260503190332 57 316 2.0 14.0 0.00 0.00 0.00 34 1008.0
20260503185608 57 307 3.0 16.0 0.00 0.00 0.00 37 1007.9
20260503185102 56 319 3.0 19.0 0.00 0.00 0.00 35 1007.9
20260503184556 56 286 1.0 19.0 0.00 0.00 0.00 35 1008.2
20260503184049 56 76 1.0 15.0 0.00 0.00 0.00 37 1008.3
20260503183544 55 248 1.0 15.0 0.00 0.00 0.00 36 1008.2
20260503183038 55 0 0.0 6.0 0.00 0.00 0.00 40 1008.3
20260503182531 54 0 0.0 6.0 0.00 0.00 0.00 41 1008.4
20260503182025 53 20 0.0 4.0 0.00 0.00 0.00 41 1008.5
20260503181518 53 355 0.0 7.0 0.00 0.00 0.00 41 1008.6
20260503181012 53 271 1.0 13.0 0.00 0.00 0.00 39 1008.6
20260503180506 54 0 0.0 13.0 0.00 0.00 0.00 37 1008.6
20260503180000 54 0 0.0 7.0 0.00 0.00 0.00 40 1008.6
20260503175712 53 0 1.0 8.0 0.00 0.00 0.00 39 1008.7
20260503174948 53 0 1.0 8.0 0.00 0.00 0.00 39 1008.8
20260503174442 53 0 0.0 8.0 0.00 0.00 0.00 40 1008.9
20260503174153 53 0 0.0 6.0 0.00 0.00 0.00 42 1008.9
20260503173429 53 62 0.0 8.0 0.00 0.00 0.00 44 1008.9
20260503172924 52 69 0.0 8.0 0.00 0.00 0.00 43 1009.1
20260503172417 51 60 0.0 7.0 0.00 0.00 0.00 43 1009.1
20260503171912 51 267 0.0 7.0 0.00 0.00 0.00 43 1009.1
20260503171406 51 39 0.0 9.0 0.00 0.00 0.00 45 1009.1
20260503171350 51 30 0.0 9.0 0.00 0.00 0.00 43 1009.1
20260503170350 51 287 0.0 8.0 0.00 0.00 0.00 42 1009.2
20260503150632 51 40 1.0 9.0 0.00 0.00 0.00 41 1009.4
20260503150126 51 294 0.0 9.0 0.00 0.00 0.00 40 1009.3
20260503131018 47 144 0.0 7.0 0.00 0.00 0.00 47 1009.7
20260503130517 47 320 0.0 11.0 0.00 0.00 0.00 47 1009.7
20260503110500 37 52 0.0 0.0 0.00 0.00 0.00 1 1009.1
20260503100217 36 52 0.0 0.0 0.00 0.00 0.00 1 1008.6
20260503090442 37 52 0.0 0.0 0.00 0.00 0.00 1 1008.7
20260503081615 39 51 0.0 0.0 0.00 0.00 0.00 19 1009.0
20260503080845 39 51 0.0 1.0 0.00 0.00 0.00 17 1008.9
20260503080339 39 51 0.0 1.0 0.00 0.00 0.00 21 1008.9
20260503072757 41 51 0.0 1.0 0.00 0.00 0.00 36 1009.0
20260503072518 41 51 0.0 1.0 0.00 0.00 0.00 36 1009.0
20260503071746 41 51 0.0 0.0 0.00 0.00 0.00 42 1009.0
20260503071239 41 51 0.0 2.0 0.00 0.00 0.00 44 1009.0
20260503070733 41 51 0.0 2.0 0.00 0.00 0.00 43 1009.0
20260503070227 41 53 0.0 0.0 0.00 0.00 0.00 41 1009.1
20260503060115 43 53 0.0 4.0 0.00 0.00 0.00 49 1009.5
20260503055104 43 52 0.0 1.0 0.00 0.00 0.00 48 1009.6
20260503054558 43 53 0.0 0.0 0.00 0.00 0.00 47 1009.6
20260503054315 44 53 0.0 2.0 0.00 0.00 0.00 45 1009.6
20260503053544 44 53 0.0 2.0 0.00 0.00 0.00 49 1009.6
20260503053038 44 49 0.0 5.0 0.00 0.00 0.00 49 1009.6
20260503053018 44 49 0.0 5.0 0.00 0.00 0.00 49 1009.6
20260503052026 44 52 0.0 4.0 0.00 0.00 0.00 49 1009.7
20260503051521 44 51 0.0 4.0 0.00 0.00 0.00 48 1009.7
20260503051015 44 55 0.0 0.0 0.00 0.00 0.00 46 1009.8
20260503050510 44 56 0.0 1.0 0.00 0.00 0.00 46 1009.8
20260503050003 44 55 0.0 1.0 0.00 0.00 0.00 44 1009.8
20260503045457 44 55 0.0 0.0 0.00 0.00 0.00 42 1009.9
20260503044951 44 55 0.0 0.0 0.00 0.00 0.00 42 1009.9
20260503044445 44 55 0.0 0.0 0.00 0.00 0.00 39 1009.9
20260503043939 44 55 0.0 0.0 0.00 0.00 0.00 40 1009.9
20260503043433 43 54 0.0 0.0 0.00 0.00 0.00 38 1010.0
20260503043148 43 55 0.0 0.0 0.00 0.00 0.00 35 1010.0
20260503042644 43 55 0.0 0.0 0.00 0.00 0.00 31 1010.0
20260503041921 44 55 0.0 0.0 0.00 0.00 0.00 34 1010.0
20260503041419 44 55 0.0 0.0 0.00 0.00 0.00 38 1009.9
20260503041145 44 55 0.0 0.0 0.00 0.00 0.00 44 1010.0
20260503040627 44 55 0.0 2.0 0.00 0.00 0.00 47 1009.9
20260503040455 44 55 0.0 2.0 0.00 0.00 0.00 45 1010.0
20260503035412 45 54 0.0 0.0 0.00 0.00 0.00 44 1009.9
20260503034913 45 54 0.0 0.0 0.00 0.00 0.00 46 1010.1
20260503034411 46 54 0.0 0.0 0.00 0.00 0.00 50 1009.9
20260503033911 46 53 0.0 5.0 0.00 0.00 0.00 49 1010.0
20260503033631 45 54 0.0 5.0 0.00 0.00 0.00 49 1009.9
20260503032911 45 54 0.0 4.0 0.00 0.00 0.00 49 1009.9
20260503032628 44 55 0.0 2.0 0.00 0.00 0.00 49 1009.8
20260503031907 44 61 0.0 2.0 0.00 0.00 0.00 47 1009.8
20260503031405 44 63 0.0 0.0 0.00 0.00 0.00 43 1009.9
20260503031126 44 64 0.0 5.0 0.00 0.00 0.00 37 1010.0
20260503030405 43 64 0.0 5.0 0.00 0.00 0.00 37 1009.9
20260503025904 44 59 0.0 0.0 0.00 0.00 0.00 29 1010.0
20260503025359 44 59 0.0 0.0 0.00 0.00 0.00 36 1010.0
20260503024859 44 59 0.0 0.0 0.00 0.00 0.00 41 1010.1
20260503024357 44 59 0.0 0.0 0.00 0.00 0.00 43 1010.1
20260503023855 44 59 0.0 0.0 0.00 0.00 0.00 38 1010.2
20260503023354 45 59 0.0 0.0 0.00 0.00 0.00 39 1010.3
20260503022852 45 59 0.0 0.0 0.00 0.00 0.00 40 1010.2
20260503022351 45 59 0.0 0.0 0.00 0.00 0.00 47 1010.2
20260503021849 45 59 0.0 0.0 0.00 0.00 0.00 48 1010.3
20260503021349 45 59 0.0 0.0 0.00 0.00 0.00 49 1010.3
20260503020849 46 59 0.0 0.0 0.00 0.00 0.00 48 1010.3
20260503020349 46 59 0.0 0.0 0.00 0.00 0.00 46 1010.3
20260503015849 47 59 0.0 0.0 0.00 0.00 0.00 46 1010.4
20260503015610 47 59 0.0 0.0 0.00 0.00 0.00 51 1010.2
20260503014845 48 59 0.0 0.0 0.00 0.00 0.00 51 1010.2
20260503014345 48 59 0.0 0.0 0.00 0.00 0.00 48 1010.2
20260503014107 49 59 0.0 2.0 0.00 0.00 0.00 47 1010.1
20260503013345 49 59 0.0 4.0 0.00 0.00 0.00 47 1010.0
20260503012844 48 59 0.0 4.0 0.00 0.00 0.00 48 1010.0
20260503012344 48 59 0.0 2.0 0.00 0.00 0.00 48 1010.0
20260503011845 47 59 0.0 2.0 0.00 0.00 0.00 49 1010.0
20260503011345 47 62 0.0 0.0 0.00 0.00 0.00 49 1010.0
20260503010840 47 63 0.0 0.0 0.00 0.00 0.00 49 1009.9
20260503010340 47 63 0.0 0.0 0.00 0.00 0.00 47 1009.9
20260503005841 48 63 0.0 0.0 0.00 0.00 0.00 44 1009.8
20260503005341 48 63 0.0 0.0 0.00 0.00 0.00 48 1009.7
20260503004841 48 63 0.0 0.0 0.00 0.00 0.00 49 1009.7
20260503004340 49 63 0.0 0.0 0.00 0.00 0.00 48 1009.6
20260503004102 49 63 0.0 0.0 0.00 0.00 0.00 51 1009.5
20260503003340 49 62 0.0 0.0 0.00 0.00 0.00 52 1009.5
20260503002841 50 63 0.0 0.0 0.00 0.00 0.00 51 1009.4
20260503002337 50 63 0.0 0.0 0.00 0.00 0.00 51 1009.3
20260503002054 51 63 0.0 4.0 0.00 0.00 0.00 49 1009.4
20260503001558 51 63 0.0 4.0 0.00 0.00 0.00 50 1009.3
20260503001054 51 63 0.0 0.0 0.00 0.00 0.00 52 1009.2
20260503000333 52 63 0.0 0.0 0.00 0.00 0.00 50 1009.2
20260502235829 52 63 0.0 0.0 0.00 0.00 0.00 49 1009.2
20260502235555 53 63 0.0 0.0 0.00 0.00 0.00 48 1009.1
20260502234829 53 63 0.0 0.0 0.00 0.00 0.00 42 1009.2
20260502234329 53 63 0.0 0.0 0.00 0.00 0.00 39 1009.2
20260502233829 53 63 0.0 0.0 0.00 0.00 0.00 40 1009.1
20260502233329 53 63 0.0 0.0 0.00 0.00 0.00 40 1009.2
20260502232829 54 63 0.0 0.0 0.00 0.00 0.00 41 1009.1
20260502232329 54 63 0.0 8.0 0.00 0.00 0.00 41 1009.2